| time (UTC) | temp F | wind direction | speed MPH | gust MPH | rain 1hr in | rain 24hr in | rain mn in | humidity % | barometer mb |
| 20260904085704 | 68 | 303 | 0.0 | 0.0 | 0.00 | 0.01 | 0.00 | 91 | 1010.2 |
| 20260904085204 | 68 | 303 | 0.0 | 1.0 | 0.00 | 0.01 | 0.00 | 91 | 1010.4 |
| 20260904084704 | 68 | 303 | 0.0 | 1.0 | 0.00 | 0.01 | 0.00 | 91 | 1010.2 |
| 20260904084205 | 68 | 303 | 0.0 | 0.0 | 0.00 | 0.01 | 0.00 | 91 | 1010.1 |
| 20260904083705 | 68 | 303 | 0.0 | 0.0 | 0.00 | 0.01 | 0.00 | 91 | 1010.0 |
| 20260904083204 | 68 | 303 | 0.0 | 0.0 | 0.00 | 0.01 | 0.00 | 91 | 1009.8 |
| 20260904082704 | 68 | 303 | 0.0 | 1.0 | 0.00 | 0.01 | 0.00 | 91 | 1009.8 |
| 20260904082205 | 68 | 303 | 0.0 | 0.0 | 0.00 | 0.01 | 0.00 | 91 | 1009.8 |
| 20260904081704 | 68 | 303 | 0.0 | 0.0 | 0.00 | 0.01 | 0.00 | 91 | 1009.8 |
| 20260904081205 | 68 | 303 | 0.0 | 0.0 | 0.00 | 0.01 | 0.00 | 91 | 1009.8 |
| 20260904080205 | 68 | 303 | 0.0 | 1.0 | 0.00 | 0.01 | 0.00 | 91 | 1009.8 |
| 20260904075705 | 68 | 303 | 1.0 | 2.0 | 0.00 | 0.01 | 0.00 | 91 | 1009.9 |
| 20260904074704 | 68 | 303 | 0.0 | 0.0 | 0.00 | 0.01 | 0.00 | 91 | 1009.9 |
| 20260904074205 | 69 | 303 | 0.0 | 1.0 | 0.00 | 0.01 | 0.00 | 91 | 1009.9 |
| 20260904073705 | 69 | 303 | 0.0 | 0.0 | 0.00 | 0.01 | 0.00 | 91 | 1010.0 |
| 20260904073205 | 69 | 303 | 0.0 | 1.0 | 0.00 | 0.01 | 0.00 | 91 | 1010.0 |
| 20260904072705 | 69 | 303 | 1.0 | 2.0 | 0.00 | 0.01 | 0.00 | 91 | 1010.1 |
| 20260904072204 | 69 | 303 | 0.0 | 1.0 | 0.00 | 0.01 | 0.00 | 91 | 1010.1 |
| 20260904071705 | 69 | 303 | 0.0 | 0.0 | 0.00 | 0.01 | 0.00 | 91 | 1010.1 |
| 20260904071207 | 69 | 303 | 0.0 | 0.0 | 0.00 | 0.01 | 0.00 | 91 | 1010.1 |
| 20260904070204 | 69 | 303 | 0.0 | 0.0 | 0.00 | 0.01 | 0.00 | 91 | 1010.3 |
| 20260904065703 | 69 | 303 | 0.0 | 0.0 | 0.00 | 0.01 | 0.00 | 91 | 1010.5 |
| 20260904064204 | 69 | 303 | 0.0 | 0.0 | 0.00 | 0.01 | 0.00 | 91 | 1010.7 |
| 20260904063704 | 69 | 303 | 0.0 | 0.0 | 0.00 | 0.01 | 0.00 | 91 | 1010.7 |
| 20260904062704 | 69 | 303 | 0.0 | 0.0 | 0.00 | 0.01 | 0.00 | 91 | 1010.8 |
| 20260904062204 | 69 | 303 | 0.0 | 0.0 | 0.00 | 0.01 | 0.00 | 91 | 1010.8 |
| 20260904061703 | 69 | 303 | 0.0 | 1.0 | 0.00 | 0.01 | 0.00 | 91 | 1011.0 |
| 20260904061204 | 69 | 303 | 0.0 | 0.0 | 0.00 | 0.01 | 0.00 | 91 | 1010.9 |
| 20260904060704 | 69 | 303 | 0.0 | 0.0 | 0.00 | 0.01 | 0.00 | 91 | 1010.8 |
| 20260904060204 | 69 | 303 | 0.0 | 0.0 | 0.00 | 0.01 | 0.00 | 91 | 1010.9 |
| 20260904055704 | 69 | 303 | 0.0 | 0.0 | 0.00 | 0.01 | 0.00 | 91 | 1011.0 |
| 20260904055204 | 69 | 303 | 0.0 | 0.0 | 0.00 | 0.01 | 0.00 | 91 | 1011.0 |
| 20260904054704 | 69 | 303 | 0.0 | 0.0 | 0.00 | 0.02 | 0.00 | 91 | 1010.9 |
| 20260904054204 | 69 | 303 | 0.0 | 0.0 | 0.00 | 0.02 | 0.00 | 91 | 1010.8 |
| 20260904053704 | 69 | 303 | 0.0 | 0.0 | 0.00 | 0.03 | 0.00 | 91 | 1011.0 |
| 20260904052704 | 69 | 303 | 0.0 | 0.0 | 0.00 | 0.06 | 0.00 | 90 | 1011.0 |
| 20260904052204 | 69 | 303 | 0.0 | 0.0 | 0.00 | 0.07 | 0.00 | 90 | 1011.0 |
| 20260904051704 | 69 | 303 | 0.0 | 0.0 | 0.00 | 0.08 | 0.00 | 90 | 1011.1 |
| 20260904051204 | 69 | 303 | 0.0 | 0.0 | 0.00 | 0.09 | 0.00 | 90 | 1011.0 |
| 20260904050704 | 69 | 303 | 0.0 | 0.0 | 0.00 | 0.10 | 0.00 | 90 | 1011.1 |
| 20260904050204 | 69 | 303 | 0.0 | 0.0 | 0.00 | 0.10 | 0.00 | 90 | 1011.2 |
| 20260904045704 | 69 | 303 | 0.0 | 0.0 | 0.00 | 0.11 | 0.00 | 90 | 1011.3 |
| 20260904045204 | 69 | 303 | 0.0 | 0.0 | 0.00 | 0.12 | 0.00 | 90 | 1011.4 |
| 20260904044704 | 69 | 303 | 0.0 | 0.0 | 0.00 | 0.14 | 0.00 | 90 | 1011.4 |
| 20260904044204 | 69 | 303 | 0.0 | 1.0 | 0.00 | 0.16 | 0.00 | 90 | 1011.4 |
| 20260904043704 | 69 | 303 | 1.0 | 2.0 | 0.00 | 0.18 | 0.00 | 90 | 1011.5 |
| 20260904042704 | 70 | 303 | 0.0 | 0.0 | 0.00 | 0.19 | 0.00 | 90 | 1011.6 |
| 20260904041704 | 69 | 303 | 0.0 | 0.0 | 0.00 | 0.19 | 0.00 | 90 | 1011.6 |
| 20260904041204 | 69 | 303 | 0.0 | 0.0 | 0.00 | 0.19 | 0.00 | 90 | 1011.6 |
| 20260904040704 | 69 | 303 | 0.0 | 0.0 | 0.00 | 0.19 | 0.00 | 90 | 1011.5 |
| 20260904040204 | 69 | 303 | 0.0 | 1.0 | 0.00 | 0.19 | 0.00 | 90 | 1011.6 |
| 20260904035704 | 69 | 303 | 0.0 | 2.0 | 0.00 | 0.19 | 0.19 | 90 | 1011.7 |
| 20260904035204 | 69 | 303 | 1.0 | 3.0 | 0.00 | 0.19 | 0.19 | 90 | 1011.7 |
| 20260904034703 | 69 | 302 | 0.0 | 2.0 | 0.00 | 0.19 | 0.19 | 90 | 1011.7 |
| 20260904034205 | 69 | 302 | 0.0 | 0.0 | 0.00 | 0.19 | 0.19 | 90 | 1011.8 |
| 20260904033704 | 69 | 302 | 0.0 | 0.0 | 0.00 | 0.19 | 0.19 | 90 | 1011.7 |
| 20260904033204 | 69 | 302 | 0.0 | 0.0 | 0.00 | 0.19 | 0.19 | 90 | 1011.7 |
| 20260904032704 | 69 | 302 | 0.0 | 0.0 | 0.00 | 0.19 | 0.19 | 90 | 1011.8 |
| 20260904032203 | 69 | 302 | 0.0 | 0.0 | 0.00 | 0.19 | 0.19 | 90 | 1011.8 |
| 20260904031705 | 69 | 302 | 0.0 | 0.0 | 0.00 | 0.19 | 0.19 | 90 | 1011.9 |
| 20260904031205 | 69 | 302 | 0.0 | 0.0 | 0.00 | 0.19 | 0.19 | 90 | 1011.8 |
| 20260904030204 | 69 | 302 | 0.0 | 0.0 | 0.00 | 0.19 | 0.19 | 90 | 1011.8 |
| 20260904025704 | 69 | 302 | 0.0 | 0.0 | 0.00 | 0.19 | 0.19 | 90 | 1011.8 |
| 20260904025204 | 70 | 302 | 0.0 | 0.0 | 0.00 | 0.19 | 0.19 | 90 | 1011.8 |
| 20260904024704 | 70 | 302 | 0.0 | 0.0 | 0.00 | 0.19 | 0.19 | 90 | 1012.1 |
| 20260904024204 | 70 | 302 | 0.0 | 0.0 | 0.00 | 0.19 | 0.19 | 90 | 1012.2 |
| 20260904023704 | 69 | 302 | 0.0 | 0.0 | 0.00 | 0.19 | 0.19 | 90 | 1012.2 |
| 20260904023204 | 69 | 302 | 0.0 | 0.0 | 0.00 | 0.19 | 0.19 | 90 | 1012.2 |
| 20260904022203 | 69 | 302 | 0.0 | 0.0 | 0.00 | 0.19 | 0.19 | 90 | 1012.2 |
| 20260904021703 | 69 | 302 | 0.0 | 0.0 | 0.00 | 0.19 | 0.19 | 90 | 1012.3 |
| 20260904021204 | 69 | 302 | 0.0 | 0.0 | 0.00 | 0.19 | 0.19 | 90 | 1012.4 |
| 20260904020204 | 69 | 302 | 0.0 | 0.0 | 0.00 | 0.19 | 0.19 | 89 | 1012.2 |
| 20260904015704 | 69 | 302 | 0.0 | 0.0 | 0.00 | 0.19 | 0.19 | 89 | 1012.2 |
| 20260904015203 | 69 | 302 | 0.0 | 0.0 | 0.00 | 0.19 | 0.19 | 89 | 1012.3 |
| 20260904014704 | 69 | 302 | 0.0 | 0.0 | 0.00 | 0.19 | 0.19 | 89 | 1012.3 |
| 20260904014204 | 69 | 302 | 0.0 | 0.0 | 0.00 | 0.19 | 0.19 | 89 | 1012.4 |
| 20260904013204 | 70 | 302 | 0.0 | 0.0 | 0.00 | 0.19 | 0.19 | 89 | 1012.3 |
| 20260904012204 | 70 | 302 | 0.0 | 0.0 | 0.00 | 0.19 | 0.19 | 89 | 1012.4 |
| 20260904011704 | 70 | 302 | 0.0 | 0.0 | 0.00 | 0.19 | 0.19 | 89 | 1012.4 |
| 20260904011204 | 70 | 302 | 0.0 | 0.0 | 0.00 | 0.19 | 0.19 | 88 | 1012.4 |
| 20260904010204 | 71 | 302 | 0.0 | 0.0 | 0.00 | 0.19 | 0.19 | 88 | 1012.3 |
| 20260904005704 | 71 | 302 | 0.0 | 0.0 | 0.00 | 0.19 | 0.19 | 88 | 1012.2 |
| 20260904004704 | 71 | 302 | 0.0 | 0.0 | 0.00 | 0.19 | 0.19 | 88 | 1012.0 |
| 20260904004204 | 71 | 302 | 0.0 | 0.0 | 0.00 | 0.19 | 0.19 | 88 | 1012.0 |
| 20260904003704 | 71 | 302 | 0.0 | 0.0 | 0.00 | 0.19 | 0.19 | 88 | 1012.0 |
| 20260904003204 | 71 | 302 | 0.0 | 0.0 | 0.00 | 0.19 | 0.19 | 88 | 1012.1 |
| 20260904002704 | 72 | 302 | 0.0 | 0.0 | 0.00 | 0.19 | 0.19 | 88 | 1012.1 |
| 20260904002204 | 72 | 302 | 0.0 | 0.0 | 0.00 | 0.19 | 0.19 | 88 | 1012.0 |
| 20260904001704 | 72 | 302 | 0.0 | 0.0 | 0.00 | 0.19 | 0.19 | 87 | 1012.2 |
| 20260904001203 | 72 | 302 | 0.0 | 0.0 | 0.00 | 0.19 | 0.19 | 87 | 1012.3 |
| 20260904000704 | 72 | 302 | 0.0 | 0.0 | 0.00 | 0.19 | 0.19 | 87 | 1012.1 |
| 20260903235704 | 72 | 302 | 0.0 | 0.0 | 0.00 | 0.19 | 0.19 | 87 | 1011.7 |
| 20260903235204 | 73 | 302 | 0.0 | 0.0 | 0.00 | 0.19 | 0.19 | 87 | 1011.6 |
| 20260903234704 | 73 | 302 | 0.0 | 0.0 | 0.00 | 0.19 | 0.19 | 87 | 1011.6 |
| 20260903234204 | 73 | 302 | 0.0 | 0.0 | 0.00 | 0.19 | 0.19 | 86 | 1011.5 |
| 20260903233205 | 74 | 302 | 0.0 | 0.0 | 0.00 | 0.19 | 0.19 | 86 | 1011.4 |
| 20260903232704 | 74 | 302 | 0.0 | 0.0 | 0.00 | 0.19 | 0.19 | 86 | 1011.4 |
| 20260903232205 | 74 | 302 | 0.0 | 0.0 | 0.00 | 0.19 | 0.19 | 85 | 1011.4 |
| 20260903231703 | 75 | 302 | 0.0 | 0.0 | 0.00 | 0.19 | 0.19 | 85 | 1011.4 |
| 20260903231204 | 75 | 302 | 0.0 | 0.0 | 0.00 | 0.19 | 0.19 | 85 | 1011.6 |
| 20260903230704 | 75 | 302 | 0.0 | 0.0 | 0.00 | 0.19 | 0.19 | 85 | 1011.6 |
| 20260903230204 | 75 | 302 | 0.0 | 0.0 | 0.00 | 0.19 | 0.19 | 84 | 1011.5 |
| 20260903225704 | 76 | 302 | 0.0 | 0.0 | 0.00 | 0.19 | 0.19 | 84 | 1011.6 |
| 20260903225204 | 76 | 302 | 0.0 | 0.0 | 0.00 | 0.19 | 0.19 | 84 | 1011.3 |
| 20260903224704 | 76 | 302 | 0.0 | 0.0 | 0.00 | 0.19 | 0.19 | 84 | 1011.3 |
| 20260903223704 | 77 | 302 | 0.0 | 0.0 | 0.00 | 0.19 | 0.19 | 83 | 1011.2 |
| 20260903223204 | 77 | 302 | 0.0 | 0.0 | 0.00 | 0.19 | 0.19 | 82 | 1011.2 |
| 20260903222704 | 77 | 302 | 0.0 | 0.0 | 0.00 | 0.19 | 0.19 | 82 | 1011.1 |
| 20260903222204 | 78 | 302 | 0.0 | 0.0 | 0.00 | 0.19 | 0.19 | 81 | 1011.1 |
| 20260903221204 | 79 | 302 | 0.0 | 3.0 | 0.00 | 0.19 | 0.19 | 76 | 1011.3 |
| 20260903220704 | 80 | 305 | 1.0 | 2.0 | 0.00 | 0.19 | 0.19 | 75 | 1011.3 |
| 20260903220204 | 80 | 305 | 1.0 | 2.0 | 0.00 | 0.19 | 0.19 | 74 | 1011.3 |
| 20260903215704 | 80 | 305 | 1.0 | 2.0 | 0.00 | 0.19 | 0.19 | 73 | 1011.3 |
| 20260903215205 | 81 | 305 | 1.0 | 3.0 | 0.00 | 0.19 | 0.19 | 73 | 1011.3 |
| 20260903214704 | 81 | 314 | 1.0 | 2.0 | 0.00 | 0.19 | 0.19 | 72 | 1011.3 |
| 20260903213704 | 81 | 314 | 2.0 | 5.0 | 0.00 | 0.19 | 0.19 | 72 | 1011.3 |
| 20260903213204 | 81 | 309 | 1.0 | 3.0 | 0.00 | 0.19 | 0.19 | 72 | 1011.3 |
| 20260903212204 | 81 | 325 | 2.0 | 3.0 | 0.00 | 0.19 | 0.19 | 71 | 1011.3 |
| 20260903211204 | 82 | 329 | 1.0 | 3.0 | 0.00 | 0.19 | 0.19 | 71 | 1011.2 |
| 20260903210704 | 82 | 321 | 1.0 | 3.0 | 0.00 | 0.19 | 0.19 | 70 | 1011.5 |
| 20260903210204 | 83 | 322 | 1.0 | 3.0 | 0.00 | 0.19 | 0.19 | 73 | 1011.4 |
| 20260903205704 | 83 | 237 | 1.0 | 3.0 | 0.00 | 0.19 | 0.19 | 71 | 1011.5 |
| 20260903205204 | 82 | 226 | 0.0 | 3.0 | 0.00 | 0.19 | 0.19 | 71 | 1011.5 |
| 20260903204704 | 82 | 265 | 1.0 | 3.0 | 0.00 | 0.19 | 0.19 | 69 | 1011.5 |
| 20260903204204 | 83 | 207 | 2.0 | 3.0 | 0.00 | 0.19 | 0.19 | 69 | 1011.4 |
| 20260903203703 | 83 | 252 | 2.0 | 3.0 | 0.00 | 0.19 | 0.19 | 71 | 1011.4 |
| 20260903203205 | 82 | 320 | 2.0 | 3.0 | 0.00 | 0.19 | 0.19 | 71 | 1011.4 |
| 20260903202704 | 82 | 220 | 1.0 | 2.0 | 0.00 | 0.19 | 0.19 | 70 | 1011.4 |
| 20260903202204 | 82 | 219 | 2.0 | 3.0 | 0.00 | 0.19 | 0.19 | 70 | 1011.3 |
| 20260903201704 | 82 | 260 | 1.0 | 3.0 | 0.00 | 0.19 | 0.19 | 73 | 1011.4 |
| 20260903201204 | 81 | 268 | 1.0 | 2.0 | 0.00 | 0.19 | 0.19 | 74 | 1011.4 |
| 20260903200704 | 80 | 268 | 1.0 | 3.0 | 0.00 | 0.19 | 0.19 | 74 | 1011.4 |
| 20260903200204 | 80 | 269 | 0.0 | 2.0 | 0.00 | 0.19 | 0.19 | 76 | 1011.4 |
| 20260903195704 | 79 | 269 | 0.0 | 2.0 | 0.00 | 0.19 | 0.19 | 76 | 1011.5 |
| 20260903195204 | 80 | 269 | 2.0 | 3.0 | 0.00 | 0.19 | 0.19 | 74 | 1011.4 |
| 20260903194706 | 80 | 269 | 1.0 | 2.0 | 0.00 | 0.19 | 0.19 | 75 | 1011.5 |
| 20260903194204 | 80 | 269 | 0.0 | 2.0 | 0.00 | 0.19 | 0.19 | 75 | 1011.5 |
| 20260903193704 | 81 | 269 | 0.0 | 3.0 | 0.00 | 0.19 | 0.19 | 74 | 1011.6 |
| 20260903193204 | 81 | 246 | 1.0 | 3.0 | 0.00 | 0.19 | 0.19 | 74 | 1011.7 |
| 20260903192704 | 80 | 232 | 0.0 | 1.0 | 0.00 | 0.19 | 0.19 | 75 | 1011.7 |
| 20260903192204 | 80 | 232 | 1.0 | 2.0 | 0.00 | 0.19 | 0.19 | 73 | 1011.8 |
| 20260903191704 | 81 | 232 | 2.0 | 3.0 | 0.00 | 0.19 | 0.19 | 73 | 1011.9 |
| 20260903190704 | 82 | 232 | 1.0 | 2.0 | 0.00 | 0.19 | 0.19 | 72 | 1011.9 |
| 20260903190204 | 81 | 232 | 1.0 | 3.0 | 0.00 | 0.19 | 0.19 | 74 | 1012.0 |
| 20260903185204 | 81 | 318 | 2.0 | 5.0 | 0.00 | 0.19 | 0.19 | 74 | 1012.0 |
| 20260903184704 | 80 | 249 | 1.0 | 3.0 | 0.00 | 0.19 | 0.19 | 75 | 1012.1 |
| 20260903183703 | 80 | 280 | 2.0 | 3.0 | 0.00 | 0.19 | 0.19 | 76 | 1012.2 |
| 20260903183204 | 79 | 237 | 2.0 | 6.0 | 0.00 | 0.19 | 0.19 | 76 | 1012.2 |
| 20260903182704 | 79 | 214 | 2.0 | 5.0 | 0.00 | 0.19 | 0.19 | 76 | 1012.4 |
| 20260903182204 | 79 | 178 | 2.0 | 5.0 | 0.00 | 0.19 | 0.19 | 76 | 1012.3 |
| 20260903181704 | 79 | 203 | 2.0 | 3.0 | 0.00 | 0.19 | 0.19 | 76 | 1012.4 |
| 20260903181204 | 79 | 280 | 1.0 | 3.0 | 0.00 | 0.19 | 0.19 | 77 | 1012.3 |
| 20260903180704 | 79 | 257 | 1.0 | 6.0 | 0.00 | 0.19 | 0.19 | 76 | 1012.3 |
| 20260903180204 | 79 | 240 | 1.0 | 3.0 | 0.00 | 0.19 | 0.19 | 75 | 1012.3 |
| 20260903175704 | 79 | 255 | 3.0 | 3.0 | 0.00 | 0.19 | 0.19 | 76 | 1012.5 |
| 20260903175204 | 79 | 249 | 0.0 | 3.0 | 0.00 | 0.19 | 0.19 | 77 | 1012.4 |
| 20260903174704 | 79 | 224 | 2.0 | 3.0 | 0.00 | 0.19 | 0.19 | 76 | 1012.4 |
| 20260903174204 | 79 | 222 | 2.0 | 6.0 | 0.00 | 0.19 | 0.19 | 76 | 1012.5 |
| 20260903173704 | 79 | 251 | 2.0 | 7.0 | 0.00 | 0.19 | 0.19 | 75 | 1012.5 |
| 20260903173204 | 80 | 225 | 2.0 | 3.0 | 0.00 | 0.19 | 0.19 | 74 | 1012.5 |
| 20260903172204 | 79 | 213 | 2.0 | 3.0 | 0.00 | 0.19 | 0.19 | 76 | 1012.7 |
| 20260903171704 | 78 | 239 | 1.0 | 3.0 | 0.00 | 0.19 | 0.19 | 77 | 1012.7 |
| 20260903171203 | 77 | 239 | 1.0 | 3.0 | 0.00 | 0.19 | 0.19 | 78 | 1012.8 |
| 20260903170705 | 77 | 236 | 1.0 | 3.0 | 0.00 | 0.19 | 0.19 | 79 | 1012.9 |
| 20260903170204 | 77 | 242 | 1.0 | 2.0 | 0.00 | 0.19 | 0.19 | 78 | 1012.9 |
| 20260903165704 | 77 | 242 | 1.0 | 3.0 | 0.00 | 0.19 | 0.19 | 78 | 1012.9 |
| 20260903164704 | 78 | 244 | 1.0 | 3.0 | 0.00 | 0.19 | 0.19 | 76 | 1012.9 |
| 20260903164204 | 78 | 243 | 2.0 | 5.0 | 0.00 | 0.19 | 0.19 | 76 | 1012.8 |
| 20260903163704 | 78 | 183 | 1.0 | 3.0 | 0.00 | 0.19 | 0.19 | 76 | 1012.7 |
| 20260903163204 | 78 | 256 | 1.0 | 3.0 | 0.00 | 0.19 | 0.19 | 77 | 1012.7 |
| 20260903162704 | 78 | 254 | 2.0 | 3.0 | 0.00 | 0.19 | 0.19 | 77 | 1012.8 |
| 20260903162204 | 77 | 255 | 1.0 | 2.0 | 0.00 | 0.19 | 0.19 | 78 | 1013.0 |
| 20260903161204 | 76 | 253 | 1.0 | 3.0 | 0.00 | 0.19 | 0.19 | 78 | 1013.2 |
| 20260903160204 | 76 | 241 | 1.0 | 5.0 | 0.00 | 0.19 | 0.19 | 79 | 1013.4 |
| 20260903155704 | 76 | 231 | 2.0 | 3.0 | 0.00 | 0.19 | 0.19 | 79 | 1013.3 |
| 20260903155205 | 75 | 232 | 1.0 | 2.0 | 0.00 | 0.19 | 0.19 | 80 | 1013.3 |
| 20260903154203 | 75 | 232 | 1.0 | 3.0 | 0.00 | 0.19 | 0.19 | 81 | 1013.2 |
| 20260903153704 | 75 | 232 | 1.0 | 3.0 | 0.00 | 0.19 | 0.19 | 81 | 1013.3 |
| 20260903153204 | 75 | 232 | 2.0 | 3.0 | 0.00 | 0.19 | 0.19 | 82 | 1013.4 |
| 20260903152204 | 74 | 232 | 2.0 | 3.0 | 0.00 | 0.19 | 0.19 | 82 | 1013.4 |
| 20260903151204 | 73 | 232 | 1.0 | 2.0 | 0.00 | 0.19 | 0.19 | 83 | 1013.6 |
| 20260903150704 | 73 | 232 | 1.0 | 2.0 | 0.00 | 0.19 | 0.19 | 83 | 1013.6 |
| 20260903150204 | 73 | 232 | 1.0 | 3.0 | 0.00 | 0.19 | 0.19 | 83 | 1013.5 |
| 20260903145704 | 73 | 232 | 0.0 | 2.0 | 0.00 | 0.19 | 0.19 | 83 | 1013.5 |
| 20260903145204 | 73 | 232 | 0.0 | 2.0 | 0.00 | 0.19 | 0.19 | 84 | 1013.5 |
| 20260903144704 | 72 | 232 | 2.0 | 3.0 | 0.00 | 0.19 | 0.19 | 84 | 1013.5 |
| 20260903144203 | 72 | 232 | 1.0 | 3.0 | 0.00 | 0.19 | 0.19 | 85 | 1013.7 |
| 20260903143704 | 72 | 232 | 1.0 | 2.0 | 0.00 | 0.19 | 0.19 | 84 | 1013.7 |
| 20260903143205 | 72 | 232 | 1.0 | 2.0 | 0.00 | 0.19 | 0.19 | 85 | 1013.6 |
| 20260903142704 | 72 | 232 | 0.0 | 2.0 | 0.00 | 0.19 | 0.19 | 86 | 1013.6 |
| 20260903142204 | 71 | 232 | 1.0 | 2.0 | 0.00 | 0.19 | 0.19 | 85 | 1013.5 |
| 20260903141705 | 71 | 232 | 1.0 | 2.0 | 0.00 | 0.19 | 0.19 | 85 | 1013.5 |
| 20260903141204 | 71 | 232 | 2.0 | 3.0 | 0.00 | 0.19 | 0.19 | 87 | 1013.5 |
| 20260903140704 | 71 | 232 | 1.0 | 2.0 | 0.00 | 0.19 | 0.19 | 87 | 1013.4 |
| 20260903140204 | 71 | 232 | 1.0 | 2.0 | 0.00 | 0.19 | 0.19 | 88 | 1013.5 |
| 20260903135204 | 70 | 232 | 0.0 | 2.0 | 0.00 | 0.19 | 0.19 | 89 | 1013.5 |
| 20260903134704 | 70 | 232 | 1.0 | 3.0 | 0.00 | 0.19 | 0.19 | 90 | 1013.5 |
| 20260903133704 | 70 | 232 | 0.0 | 0.0 | 0.00 | 0.19 | 0.19 | 91 | 1013.5 |
| 20260903133204 | 70 | 232 | 0.0 | 1.0 | 0.00 | 0.19 | 0.19 | 90 | 1013.5 |
| 20260903132704 | 70 | 232 | 0.0 | 1.0 | 0.00 | 0.19 | 0.19 | 91 | 1013.5 |
| 20260903132204 | 69 | 232 | 0.0 | 2.0 | 0.00 | 0.19 | 0.19 | 91 | 1013.4 |
| 20260903131705 | 69 | 232 | 0.0 | 2.0 | 0.00 | 0.19 | 0.19 | 91 | 1013.5 |
| 20260903131204 | 69 | 232 | 1.0 | 3.0 | 0.00 | 0.19 | 0.19 | 91 | 1013.7 |
| 20260903130705 | 69 | 232 | 1.0 | 3.0 | 0.00 | 0.19 | 0.19 | 91 | 1013.8 |
| 20260903130204 | 69 | 232 | 1.0 | 3.0 | 0.00 | 0.19 | 0.19 | 91 | 1013.8 |
| 20260903125704 | 69 | 232 | 0.0 | 1.0 | 0.00 | 0.19 | 0.19 | 91 | 1013.9 |
| 20260903125204 | 68 | 232 | 0.0 | 0.0 | 0.00 | 0.19 | 0.19 | 91 | 1013.9 |
| 20260903124703 | 68 | 232 | 0.0 | 1.0 | 0.00 | 0.19 | 0.19 | 91 | 1013.8 |
| 20260903124204 | 68 | 232 | 0.0 | 1.0 | 0.00 | 0.19 | 0.19 | 91 | 1013.9 |
| 20260903123705 | 68 | 232 | 0.0 | 1.0 | 0.00 | 0.19 | 0.19 | 91 | 1013.9 |
| 20260903122704 | 68 | 232 | 0.0 | 0.0 | 0.00 | 0.19 | 0.19 | 91 | 1014.1 |
| 20260903122204 | 68 | 232 | 0.0 | 1.0 | 0.01 | 0.19 | 0.19 | 91 | 1014.0 |
| 20260903121704 | 68 | 232 | 0.0 | 0.0 | 0.01 | 0.19 | 0.19 | 91 | 1014.1 |
| 20260903121205 | 68 | 232 | 0.0 | 0.0 | 0.01 | 0.19 | 0.19 | 91 | 1014.2 |
| 20260903120704 | 67 | 232 | 0.0 | 0.0 | 0.01 | 0.19 | 0.19 | 91 | 1014.2 |
| 20260903120204 | 67 | 232 | 0.0 | 0.0 | 0.01 | 0.19 | 0.19 | 91 | 1014.3 |
| 20260903115705 | 67 | 232 | 0.0 | 0.0 | 0.01 | 0.19 | 0.19 | 91 | 1014.4 |
| 20260903114705 | 67 | 232 | 0.0 | 1.0 | 0.01 | 0.19 | 0.19 | 91 | 1014.4 |
| 20260903113704 | 67 | 232 | 0.0 | 0.0 | 0.01 | 0.19 | 0.19 | 91 | 1014.4 |
| 20260903113204 | 67 | 232 | 0.0 | 0.0 | 0.01 | 0.19 | 0.19 | 91 | 1014.4 |
| 20260903112705 | 67 | 232 | 0.0 | 0.0 | 0.01 | 0.19 | 0.19 | 91 | 1014.5 |
| 20260903112204 | 67 | 232 | 0.0 | 1.0 | 0.00 | 0.18 | 0.18 | 91 | 1014.6 |
| 20260903111704 | 67 | 232 | 0.0 | 0.0 | 0.00 | 0.18 | 0.18 | 91 | 1014.7 |
| 20260903111204 | 67 | 232 | 0.0 | 0.0 | 0.00 | 0.18 | 0.18 | 91 | 1014.7 |
| 20260903110203 | 67 | 232 | 0.0 | 0.0 | 0.00 | 0.18 | 0.18 | 91 | 1014.7 |
| 20260903105203 | 67 | 232 | 0.0 | 1.0 | 0.00 | 0.18 | 0.18 | 91 | 1014.8 |
| 20260903104703 | 67 | 232 | 0.0 | 0.0 | 0.00 | 0.18 | 0.18 | 91 | 1014.8 |
| 20260903104204 | 67 | 232 | 0.0 | 0.0 | 0.00 | 0.18 | 0.18 | 91 | 1014.8 |
| 20260903103705 | 67 | 232 | 0.0 | 1.0 | 0.00 | 0.18 | 0.18 | 91 | 1014.6 |
| 20260903103203 | 67 | 232 | 0.0 | 0.0 | 0.00 | 0.18 | 0.18 | 91 | 1014.4 |
| 20260903102204 | 67 | 232 | 0.0 | 1.0 | 0.00 | 0.18 | 0.18 | 91 | 1014.2 |
| 20260903101704 | 67 | 232 | 0.0 | 0.0 | 0.00 | 0.18 | 0.18 | 91 | 1014.2 |
| 20260903101204 | 67 | 232 | 0.0 | 0.0 | 0.00 | 0.18 | 0.18 | 91 | 1014.2 |
| 20260903100704 | 67 | 232 | 0.0 | 0.0 | 0.00 | 0.18 | 0.18 | 91 | 1014.1 |
| 20260903100204 | 67 | 232 | 0.0 | 0.0 | 0.00 | 0.18 | 0.18 | 91 | 1014.3 |
| 20260903095703 | 67 | 232 | 0.0 | 0.0 | 0.00 | 0.18 | 0.18 | 90 | 1014.2 |
| 20260903095204 | 67 | 232 | 0.0 | 0.0 | 0.00 | 0.18 | 0.18 | 91 | 1014.2 |
| 20260903094704 | 67 | 232 | 0.0 | 0.0 | 0.00 | 0.18 | 0.18 | 91 | 1014.2 |
| 20260903094203 | 67 | 232 | 0.0 | 0.0 | 0.00 | 0.18 | 0.18 | 91 | 1014.2 |
| 20260903093704 | 67 | 232 | 0.0 | 0.0 | 0.00 | 0.18 | 0.18 | 91 | 1014.1 |
| 20260903093203 | 67 | 232 | 0.0 | 0.0 | 0.00 | 0.18 | 0.18 | 90 | 1013.9 |
| 20260903092704 | 67 | 232 | 0.0 | 0.0 | 0.00 | 0.18 | 0.18 | 90 | 1014.0 |
| 20260903092204 | 67 | 232 | 0.0 | 0.0 | 0.00 | 0.18 | 0.18 | 90 | 1014.1 |
| 20260903091204 | 67 | 232 | 0.0 | 1.0 | 0.00 | 0.18 | 0.18 | 90 | 1014.2 |
| 20260903090704 | 67 | 232 | 0.0 | 0.0 | 0.00 | 0.18 | 0.18 | 90 | 1014.2 |
| 20260903090203 | 67 | 232 | 0.0 | 0.0 | 0.00 | 0.18 | 0.18 | 90 | 1014.1 |